Карточка аэропорта UHMM

Внимание!
Информация на этой странице в стадии наполнения.
Если вы не увидели какой-то информации, или заметили неточность - пожалуйста сообщите нам!
Спасибо!
Команда RU-STAFF
Название аэропортаСокол
Название аэропорта (англ.)Sokol
Превышение575 ft. (175.3 m.)
Координаты59°54.648', 150°43.2'
Высота перехода10000 ft
Эшелон переходаQNH>=1013hPa: FL110; 1013hPa>QNH>=977hPa: FL120; QNH<977hPa: FL130
Коды ответчика6540-6577
Зона ОрВДМагадан РПИ (UHMM)
Данные METARUHMM 232155Z 00000MPS 9999 OVC005 07/07 Q1012 R10/70D NOSIG RMK MT OBSC QFE744 R28/00000MPS
Проноз погоды (TAF)UHMM 232000Z 2321/2503 24003G10MPS 1000 BR VV004 TEMPO 2321/2323 0300 FG VV002 BECMG 2323/2324 9999 NSW SCT040CB TEMPO 2411/2423 0500 FG VV002
NOTAMshow/hide NOTAM
AWOS   TABLE

Информация о ВПП


Диспетчерские позиции

Позывной Наименование органа УВД Частота
UHMM_APPМагадан-Подход119.3
UHMM_TWRМагадан-Вышка120.8



Спутниковое изображение